Location: Erp
(42.9417°N, 1.2009°E)
Time: 09:50:39
(UTC+00:00)

PSLV R/B - Pass Details

Date: 12 January 2026
Orbit: 560 x 588 km, 98.0° (Epoch: 11 February)

Event Time Altitude Azimuth Distance (km) Brightness Sun altitude
Rises 17:48:43 0° 139° (SE) 2,794 6.7 -11.9°
Reaches altitude 10° 17:51:04 10° 129° (SE) 1,903 5.7 -12.3°
Maximum altitude 17:54:38 29° 69° (ENE) 1,089 4.2 -12.9°
Drops below altitude 10° 17:58:15 10° 9° (N) 1,924 5.8 -13.5°
Sets 18:00:37 0° 358° (N) 2,831 6.8 -14.0°
